[Date Prev][Date Next][Thread Prev][Thread Next] - [Date Index][Thread Index][Author Index]
2 Line ISS Keps 6-15
- Subject: [sarex] 2 Line ISS Keps 6-15
- From: "Dave Larsen PhD" <doc@xxxxxxxxxxx>
- Date: Sun, 15 Jun 2003 03:29:50 -0700
ISS
1 25544U 98067A 03166.13135763 .00016846 00000-0 21371-3 0 1191
2 25544 51.6341 30.5652 0006502 255.9456 256.1208 15.59545242260680
----
Via the sarex mailing list at AMSAT.ORG courtesy of AMSAT-NA.
To unsubscribe, send "unsubscribe sarex" to Majordomo@amsat.org
AMSAT Home